Flag for Argentina Weather past 2 weeks in Ushuaia, Tierra del Fuego, Argentina

Now
46 °F

Rain. Broken clouds.


Feels Like: 37 °F
Forecast: 37 / 48 °F
Wind: 32 mph from Southwest

Location: Ushuaia Aerodrome

Current Time: Dec 26, 2014 at 1:39:59 PM

Latest Report: Dec 26, 2014 at 1:00 PM


Visibility: N/A

Pressure: 29.30 "Hg

Humidity: 62%

Dew point: 34 °F

Location of UshuaiaLocation

Historic Weather in Ushuaia — Graph

°F

Ushuaia temperature yesterday

Maximum temperature yesterday: 54 °F (at 9:00 AM)
Minimum temperature yesterday: 41 °F (at 11:00 PM)
Average temperature yesterday: 48 °F

Past Weeks' High & Low Weather Summary

 TemperatureHumidityPressure
High70 °F (Dec 15, 2:00 PM)93% (Dec 11, 7:00 PM)29.77 "Hg (Dec 11, 7:00 PM)
Low36 °F (Dec 12, 1:00 AM)33% (Dec 15, 2:00 PM)28.80 "Hg (Dec 18, 9:00 AM)
Average45 °F75%29.32 "Hg
* Reported Dec 11 12:00 Noon — Dec 26 12:00 Noon, Ushuaia, Weather by CustomWeather, © 2014

Note: Actual official high and low records may vary slightly from our data, if they occured in-between our weather recording intervals... More about our weather records

Advertising

Ushuaia weather history for previous 24 hours

 ConditionsComfort  
Time TempWeatherWind HumidityBarometerVisibility
12:00 PM
Dec 26
45 °FScattered showers. Broken clouds.25 mph71%29.27 "HgN/A
11:00 AM43 °FLight rain. Broken clouds.23 mph71%29.27 "HgN/A
10:00 AM45 °FScattered showers. Partly sunny.21 mph57%29.24 "HgN/A
9:00 AM45 °FScattered showers. Broken clouds.14 mph53%29.24 "HgN/A
8:00 AM43 °FScattered clouds.7 mph66%29.21 "HgN/A
7:00 AM41 °FScattered clouds.9 mph70%29.21 "HgN/A
6:00 AM41 °FScattered clouds.16 mph66%29.15 "HgN/A
5:00 AM39 °FScattered showers. Scattered clouds.16 mph75%29.18 "HgN/A
4:00 AM39 °FScattered clouds.13 mph75%29.18 "HgN/A
3:00 AM41 °FPassing clouds.17 mph76%29.15 "HgN/A
2:00 AM41 °FPassing clouds.20 mph76%29.12 "HgN/A
1:00 AM41 °FPassing clouds.21 mph76%29.12 "HgN/A
12:00 AM41 °FScattered showers. Partly cloudy.29 mph70%29.09 "HgN/A
11:00 PM
Dec 25
41 °FScattered showers. Partly cloudy.23 mph76%29.09 "HgN/A
10:00 PM43 °FScattered showers. Partly cloudy.21 mph71%29.06 "HgN/A
9:00 PM45 °FScattered showers. Broken clouds.35 mph66%29.03 "HgN/A
8:00 PM46 °FScattered showers. Broken clouds.23 mph76%29.03 "HgN/A
7:00 PM48 °FScattered showers. Broken clouds.25 mph71%29.00 "HgN/A
6:00 PM46 °FScattered showers. Partly sunny.17 mph76%29.00 "HgN/A
4:00 PM48 °FPartly sunny.6 mph71%29.00 "HgN/A
3:00 PM48 °FDrizzle. Partly sunny.12 mph71%29.00 "HgN/A
2:00 PM52 °FPartly sunny.22 mph47%29.03 "HgN/A
1:00 PM52 °FPartly sunny.21 mph47%29.03 "HgN/A
Weather by CustomWeather, © 2014

See weather overviewHow to use our weather pages